STARLINK-5992 (56328 NORAD) Tracking and Keplerian Element Data

This shows tracking and keplerian element data for the satellite.

Feedback or suggestion? Click here.




ElementValue
Catalog56328
NameSTARLINK-5992
Epoch Orbit183
Epoch Day127.16667824
Epoch Year2023
RAAN126.653
Inclination97.663
Eccentricity0.0001532
Argument of Perigee101.2439
Mean Anonmoly85.0914
Mean Motion15.67735973
Decay Rate-0.0085682
L11 56328U 23058M 23127.16667824 -.00856820 00000+0 -86892-2 0 9992
L22 56328 97.6630 126.6530 0001532 101.2439 85.0914 15.67735973 1833



Live tracking and technical data element details for STARLINK-5992 (NORAD 56328). STARLINK-5992 can be tracked NOW for your location showing map with azimuth and elevation plus other details from your city location.







IsCatalogInMostPopularTable: catalog: 56328, numindb: 2
Update: records affected: 1



GetName: 56328 STARLINK-5992

Hit Count: updated at: Mon, 05 Jun 2023 00:08:34 GMT